| time (UTC) | temp C | wind direction | speed KPH | gust KPH | rain 1hr cm | rain 24hr cm | rain mn cm | humidity % | barometer mb |
| 20260902023041 | 24 | 198 | 0.0 | 0.0 | 0.00 | 0.00 | 0.00 | 91 | 1016.3 |
| 20260902021540 | 24 | 198 | 0.0 | 0.0 | 0.00 | 0.00 | 0.00 | 90 | 1016.2 |
| 20260902020043 | 25 | 198 | 0.0 | 0.0 | 0.00 | 0.00 | 0.00 | 89 | 1016.2 |
| 20260902014548 | 25 | 198 | 0.0 | 0.0 | 0.00 | 0.00 | 0.00 | 88 | 1016.1 |
| 20260902013050 | 25 | 198 | 0.0 | 0.0 | 0.00 | 0.00 | 0.00 | 87 | 1016.0 |
| 20260902011538 | 25 | 198 | 0.0 | 0.0 | 0.00 | 0.00 | 0.00 | 86 | 1015.9 |
| 20260902010048 | 26 | 198 | 0.0 | 0.0 | 0.00 | 0.00 | 0.00 | 85 | 1015.8 |
| 20260902004538 | 26 | 198 | 0.0 | 0.0 | 0.00 | 0.00 | 0.00 | 84 | 1015.7 |
| 20260902003111 | 27 | 198 | 0.0 | 0.0 | 0.00 | 0.00 | 0.00 | 81 | 1015.6 |
| 20260902001537 | 27 | 198 | 0.0 | 0.0 | 0.00 | 0.00 | 0.00 | 78 | 1015.7 |
| 20260902000037 | 28 | 198 | 0.0 | 0.0 | 0.00 | 0.00 | 0.00 | 77 | 1015.7 |
| 20260901234538 | 29 | 203 | 0.0 | 0.0 | 0.00 | 0.00 | 0.00 | 74 | 1015.8 |
| 20260901233037 | 30 | 224 | 0.0 | 0.0 | 0.00 | 0.00 | 0.00 | 72 | 1015.8 |
| 20260901231540 | 30 | 224 | 0.0 | 0.0 | 0.00 | 0.00 | 0.00 | 68 | 1015.8 |
| 20260901230033 | 31 | 225 | 0.0 | 0.0 | 0.00 | 0.00 | 0.00 | 66 | 1015.8 |
| 20260901224532 | 31 | 229 | 0.0 | 3.2 | 0.00 | 0.00 | 0.00 | 63 | 1015.9 |
| 20260901223032 | 31 | 274 | 3.2 | 4.8 | 0.00 | 0.00 | 0.00 | 62 | 1015.7 |
| 20260901221538 | 32 | 236 | 0.0 | 6.4 | 0.00 | 0.00 | 0.00 | 61 | 1015.7 |
| 20260901220037 | 32 | 183 | 3.2 | 8.0 | 0.00 | 0.00 | 0.00 | 59 | 1015.7 |
| 20260901214529 | 32 | 207 | 0.0 | 4.8 | 0.00 | 0.00 | 0.00 | 59 | 1015.7 |
| 20260901213028 | 32 | 172 | 0.0 | 0.0 | 0.00 | 0.00 | 0.00 | 57 | 1015.8 |
| 20260901211527 | 33 | 123 | 0.0 | 0.0 | 0.00 | 0.00 | 0.00 | 56 | 1015.8 |
| 20260901210026 | 33 | 127 | 0.0 | 1.6 | 0.00 | 0.00 | 0.00 | 56 | 1016.0 |
| 20260901204527 | 32 | 56 | 0.0 | 3.2 | 0.00 | 0.00 | 0.00 | 60 | 1016.1 |
| 20260901203023 | 32 | 243 | 0.0 | 3.2 | 0.00 | 0.00 | 0.00 | 63 | 1016.3 |
| 20260901201521 | 33 | 167 | 0.0 | 0.0 | 0.00 | 0.00 | 0.00 | 61 | 1016.4 |
| 20260901200020 | 33 | 169 | 0.0 | 3.2 | 0.00 | 0.00 | 0.00 | 61 | 1016.5 |
| 20260901194518 | 32 | 191 | 0.0 | 0.0 | 0.00 | 0.00 | 0.00 | 69 | 1016.6 |
| 20260901193017 | 31 | 191 | 0.0 | 0.0 | 0.00 | 0.00 | 0.00 | 70 | 1016.7 |
| 20260901191514 | 32 | 196 | 0.0 | 0.0 | 0.00 | 0.00 | 0.00 | 65 | 1016.9 |
| 20260901190016 | 33 | 196 | 0.0 | 3.2 | 0.00 | 0.00 | 0.00 | 62 | 1017.1 |
| 20260901184512 | 34 | 248 | 1.6 | 8.0 | 0.00 | 0.00 | 0.00 | 56 | 1017.1 |
| 20260901183010 | 34 | 266 | 0.0 | 6.4 | 0.00 | 0.00 | 0.00 | 58 | 1017.2 |
| 20260901181511 | 34 | 60 | 0.0 | 6.4 | 0.00 | 0.00 | 0.00 | 57 | 1017.4 |
| 20260901180008 | 34 | 60 | 1.6 | 6.4 | 0.00 | 0.64 | 0.00 | 55 | 1017.5 |
| 20260901174507 | 34 | 221 | 3.2 | 6.4 | 0.00 | 0.64 | 0.00 | 56 | 1017.5 |
| 20260901173005 | 33 | 247 | 0.0 | 8.0 | 0.00 | 0.64 | 0.00 | 60 | 1017.8 |
| 20260901171503 | 33 | 62 | 0.0 | 8.0 | 0.00 | 0.64 | 0.00 | 60 | 1017.9 |
| 20260901170105 | 33 | 39 | 0.0 | 4.8 | 0.00 | 0.64 | 0.00 | 61 | 1018.3 |
| 20260901164611 | 32 | 67 | 0.0 | 6.4 | 0.00 | 0.64 | 0.00 | 62 | 1018.5 |
| 20260901163112 | 32 | 307 | 0.0 | 4.8 | 0.00 | 0.64 | 0.00 | 65 | 1018.7 |
| 20260901161549 | 32 | 50 | 1.6 | 4.8 | 0.00 | 0.64 | 0.00 | 66 | 1018.9 |
| 20260901160047 | 31 | 96 | 1.6 | 0.0 | 0.00 | 0.00 | 0.00 | 68 | 1018.9 |
| 20260901154552 | 31 | 252 | 3.2 | 6.4 | 0.00 | 0.64 | 0.00 | 70 | 1019.1 |
| 20260901153044 | 31 | 162 | 0.0 | 1.6 | 0.00 | 0.64 | 0.00 | 70 | 1018.9 |
| 20260901151538 | 30 | 221 | 0.0 | 3.2 | 0.00 | 0.64 | 0.00 | 72 | 1019.1 |
| 20260901150034 | 29 | 231 | 0.0 | 4.8 | 0.00 | 0.64 | 0.00 | 74 | 1019.2 |
| 20260901144532 | 29 | 233 | 0.0 | 3.2 | 0.00 | 0.64 | 0.00 | 77 | 1019.1 |
| 20260901143030 | 28 | 217 | 0.0 | 1.6 | 0.00 | 0.64 | 0.00 | 79 | 1019.3 |
| 20260901141525 | 27 | 181 | 0.0 | 3.2 | 0.00 | 0.64 | 0.00 | 82 | 1019.3 |
| 20260901140022 | 27 | 269 | 0.0 | 3.2 | 0.00 | 0.64 | 0.00 | 82 | 1019.3 |
| 20260901134518 | 26 | 250 | 0.0 | 1.6 | 0.00 | 0.64 | 0.00 | 89 | 1019.3 |
| 20260901133014 | 26 | 228 | 0.0 | 1.6 | 0.00 | 0.64 | 0.00 | 94 | 1019.2 |
| 20260901131510 | 25 | 139 | 0.0 | 0.0 | 0.00 | 0.64 | 0.00 | 96 | 1019.3 |
| 20260901130008 | 24 | 139 | 0.0 | 0.0 | 0.00 | 0.64 | 0.00 | 98 | 1019.5 |
| 20260901124505 | 23 | 139 | 0.0 | 0.0 | 0.00 | 0.64 | 0.00 | 99 | 1019.4 |
| 20260901123001 | 22 | 139 | 0.0 | 0.0 | 0.00 | 0.64 | 0.00 | 99 | 1019.3 |
| 20260901121559 | 22 | 139 | 0.0 | 0.0 | 0.00 | 0.64 | 0.00 | 99 | 1019.1 |
| 20260901120056 | 20 | 139 | 0.0 | 0.0 | 0.00 | 0.64 | 0.00 | 99 | 1018.9 |
| 20260901114554 | 20 | 139 | 0.0 | 0.0 | 0.00 | 0.64 | 0.00 | 99 | 1018.6 |
| 20260901113051 | 20 | 139 | 0.0 | 0.0 | 0.00 | 0.64 | 0.00 | 99 | 1018.3 |
| 20260901111548 | 20 | 139 | 0.0 | 0.0 | 0.00 | 0.64 | 0.00 | 99 | 1018.1 |
| 20260901110049 | 20 | 139 | 0.0 | 0.0 | 0.00 | 0.64 | 0.00 | 99 | 1017.9 |
| 20260901104550 | 20 | 139 | 0.0 | 0.0 | 0.00 | 0.64 | 0.00 | 99 | 1017.8 |
| 20260901103045 | 20 | 139 | 0.0 | 0.0 | 0.00 | 0.64 | 0.00 | 99 | 1017.7 |
| 20260901101545 | 20 | 139 | 0.0 | 0.0 | 0.00 | 0.64 | 0.00 | 99 | 1017.7 |
| 20260901100051 | 20 | 139 | 0.0 | 0.0 | 0.00 | 0.64 | 0.00 | 99 | 1017.6 |
| 20260901094548 | 20 | 139 | 0.0 | 0.0 | 0.00 | 0.64 | 0.00 | 99 | 1017.6 |
| 20260901093040 | 20 | 139 | 0.0 | 0.0 | 0.00 | 0.64 | 0.00 | 99 | 1017.6 |
| 20260901091543 | 20 | 139 | 0.0 | 0.0 | 0.00 | 0.64 | 0.00 | 99 | 1017.5 |
| 20260901090051 | 20 | 139 | 0.0 | 0.0 | 0.00 | 0.64 | 0.00 | 98 | 1017.4 |
| 20260901084538 | 20 | 139 | 0.0 | 0.0 | 0.00 | 0.64 | 0.00 | 99 | 1017.4 |
| 20260901083037 | 20 | 139 | 0.0 | 0.0 | 0.00 | 0.64 | 0.00 | 99 | 1017.2 |
| 20260901081535 | 20 | 139 | 0.0 | 0.0 | 0.00 | 0.64 | 0.00 | 98 | 1017.4 |
| 20260901080035 | 20 | 139 | 0.0 | 0.0 | 0.00 | 0.64 | 0.00 | 98 | 1017.3 |
| 20260901074533 | 20 | 139 | 0.0 | 0.0 | 0.00 | 0.64 | 0.00 | 98 | 1017.4 |
| 20260901073033 | 20 | 139 | 0.0 | 0.0 | 0.00 | 0.64 | 0.00 | 98 | 1017.5 |
| 20260901071532 | 21 | 139 | 0.0 | 0.0 | 0.00 | 0.64 | 0.00 | 98 | 1017.6 |
| 20260901070044 | 21 | 146 | 0.0 | 0.0 | 0.00 | 0.64 | 0.00 | 98 | 1017.7 |
| 20260901064530 | 20 | 146 | 0.0 | 0.0 | 0.00 | 0.64 | 0.00 | 98 | 1017.7 |
| 20260901063033 | 21 | 146 | 0.0 | 0.0 | 0.00 | 0.64 | 0.00 | 98 | 1017.6 |
| 20260901061527 | 21 | 146 | 0.0 | 0.0 | 0.00 | 0.64 | 0.00 | 98 | 1017.6 |
| 20260901060034 | 21 | 146 | 0.0 | 0.0 | 0.00 | 0.64 | 0.00 | 98 | 1017.7 |
| 20260901054526 | 21 | 146 | 0.0 | 0.0 | 0.00 | 0.64 | 0.00 | 98 | 1017.7 |
| 20260901053024 | 21 | 146 | 0.0 | 0.0 | 0.00 | 0.64 | 0.00 | 97 | 1017.9 |
| 20260901051523 | 21 | 146 | 0.0 | 0.0 | 0.00 | 0.64 | 0.00 | 97 | 1017.8 |
| 20260901050020 | 21 | 146 | 0.0 | 0.0 | 0.00 | 0.64 | 0.00 | 97 | 1017.6 |
| 20260901044520 | 21 | 146 | 0.0 | 0.0 | 0.00 | 0.64 | 0.00 | 97 | 1017.5 |
| 20260901043018 | 21 | 146 | 0.0 | 0.0 | 0.00 | 0.64 | 0.00 | 97 | 1017.6 |
| 20260901041516 | 21 | 146 | 0.0 | 0.0 | 0.00 | 0.64 | 0.00 | 97 | 1017.6 |
| 20260901040017 | 21 | 146 | 0.0 | 0.0 | 0.00 | 0.64 | 0.64 | 96 | 1017.6 |
| 20260901034513 | 21 | 146 | 0.0 | 0.0 | 0.00 | 0.64 | 0.64 | 96 | 1017.4 |
| 20260901033029 | 21 | 146 | 0.0 | 0.0 | 0.00 | 0.64 | 0.64 | 96 | 1017.4 |
| 20260901031520 | 22 | 146 | 0.0 | 0.0 | 0.00 | 0.64 | 0.64 | 96 | 1017.3 |
| 20260901030012 | 22 | 146 | 0.0 | 0.0 | 0.00 | 0.64 | 0.64 | 96 | 1017.3 |
| 20260901024512 | 22 | 146 | 0.0 | 0.0 | 0.00 | 0.64 | 0.64 | 96 | 1017.3 |